Miscellaneous Local Product
Issued by NWS North Platte, NE

Home | Current Version | Previous Version | Graphics & Text | Print | Product List | Glossary On
Versions: 1 2 3 4 5 6 7 8 9 10 11 12 13 14 15 16 17 18 19 20 21 22 23 24 25 26 27 28 29 30 31 32 33 34 35 36 37 38 39 40 41 42 43 44 45 46 47 48 49 50
373
AXUS43 KLBF 272310
MISLBF


WESTERN AND NORTH CENTRAL NEBRASKA HOURLY WEATHER ROUNDUP
NATIONAL WEATHER SERVICE NORTH PLATTE NE
600 PM CDT WED APR 27 2016

NOTE: "FAIR" INDICATES FEW OR NO CLOUDS BELOW 12,000 FEET WITH NO
SIGNIFICANT WEATHER AND/OR OBSTRUCTIONS TO VISIBILITY.

NOTE: STATIONS NOT REPORTING VARIABLES SUCH AS SKY/WEATHER OR
PRESSURE ARE PROVIDED BY RAWS AND APRS NETWORKS AND ARE NOT UNDER
NATIONAL WEATHER SERVICE QUALITY CONTROL.

...OBSERVATIONS IN AND NEAR THE EASTERN PANHANDLE OF NEBRASKA...

CITY           SKY/WX    TMP DP  RH WIND       PRES   REMARKS
PINE RIDGE     LGT SNOW  34  31  88 N14       29.80R FOG     WCI  25
CHADRON        LGT SNOW  38  35  89 N20G30    29.81R FOG     WCI  28
ALLIANCE       LGT RAIN  39  37  92 N16       29.76R WCI  30
SIDNEY         PTSUNNY   50  29  44 NW28G38   29.77R
CRESCENT LAKE    N/A     41  37  86 N17G28      N/A
BIG SPRINGS      N/A     50  37  61 NW10        N/A
$$

...OBSERVATIONS IN NORTHERN NEBRASKA AND FAR SOUTHERN SOUTH DAKOTA...

CITY           SKY/WX    TMP DP  RH WIND       PRES   REMARKS
WINNER         LGT RAIN  41  37  86 NE14      29.71R FOG
VALENTINE      CLOUDY    35  32  88 NW12G23   29.72R WCI  27
THEDFORD       CLOUDY    37  35  93 NW18G26   29.69F WCI  26
AINSWORTH      MIX PCPN  36  35  96 NW16G23   29.69R WCI  26
O`NEILL        CLOUDY    44  43  95 N17       29.62R FOG
ORD            CLOUDY    41  39  93 NW21G31   29.59R
BROKEN BOW     LGT RAIN  37  35  92 NW24      29.65R WCI  26
VALENTINE NWR    N/A     34  32  94 NW20G26     N/A  WCI  23
BUTTE            N/A     40  39  97 N13G21      N/A  WCI  32
HALSEY           N/A     35  34  95 NW13G26     N/A  WCI  26
CHAMBERS         N/A     43  42  96 N6G13       N/A
EWING            N/A     45  44  96 N12         N/A
$$

...OBSERVATIONS IN SOUTHWEST NEBRASKA AND FAR NORTHEAST COLORADO...

CITY           SKY/WX    TMP DP  RH WIND       PRES   REMARKS
IMPERIAL       LGT RAIN  46  37  71 N18       29.74R
OGALLALA       CLOUDY    45  36  70 N17       29.74R
NORTH PLATTE   CLOUDY    42  36  79 NW21G32   29.71S
MCCOOK         CLOUDY    50  36  58 NW29G38   29.70S
LEXINGTON      LGT RAIN  40  36  83 NW28G38   29.67R WCI  29
STAPLETON        N/A     38  36  92 SW5         N/A  WCI  34
GOTHENBURG       N/A     41  34  77 NW21        N/A
CALLAWAY         N/A     37  35  91 NW25        N/A  WCI  25
$$

...OBSERVATIONS IN CENTRAL LINCOLN COUNTY AREA...

CITY           SKY/WX    TMP DP  RH WIND       PRES   REMARKS
N.P. AIRPORT   CLOUDY    42  36  79 NW21G32   29.71S
N.P. DOWNTOWN    N/A     42  36  78 NW15G28     N/A
N.P. SOUTHEAST   N/A     43  36  76 N9G21       N/A
N.P. HILLCREST   N/A     42  37  83 NW23G31     N/A
$$

...SOME OBSERVATIONS FROM AROUND THE REGION...

CITY           SKY/WX    TMP DP  RH WIND       PRES   REMARKS
DENVER         MOSUNNY   53  29  39 NE12G18   29.77F
LARAMIE        MOSUNNY   33  27  78 N21       29.81S WCI  21
CHEYENNE       SUNNY     42  27  55 N29G38    29.79S
SCOTTSBLUFF    CLOUDY    47  31  53 NW29G36   29.81R
RAPID CITY     LGT SNOW  33  32  96 N22       29.85R VSB 3/4 WCI  21
BISMARCK       CLOUDY    49  30  48 E12       29.92R
PIERRE         CLOUDY    38  36  92 NE17G26   29.76R WCI  28
SIOUX FALLS    LGT RAIN  43  39  86 E22G31    29.68R
OMAHA          LGT RAIN  55  53  93 E13       29.51R
GRAND ISLAND   LGT RAIN  42  40  92 NW31G43   29.52R FOG
KANSAS CITY    PTSUNNY   61  51  70 W15G24    29.58R
WICHITA        MOSUNNY   66  42  41 W18G29    29.67R
OKLAHOMA CITY  MOSUNNY   72  47  40 W15       29.71S
DALLAS         MOSUNNY   81  46  29 NW9       29.71S
AMARILLO       SUNNY     68  34  28 E10       29.77F
DODGE CITY     SUNNY     61  34  36 NW17G32   29.72S
HAYS           PTSUNNY   55  36  47 NW21G33   29.70R
GOODLAND       MOSUNNY   54  31  41 NW24G32   29.72S
$$




USA.gov is the U.S. government's official web portal to all federal, state and local government web resources and services.